Weather History for Gwinn, MI

Change the Weather History Date:

Friday, January 18, 2013

  Actual Average (KESC) Record (KESC)
Temperature  
Mean Temperature 6 °F -  
Max Temperature 16 °F 26 °F 41 °F (1981)
Min Temperature -3 °F 9 °F -19 °F (1962)
Degree Days  
Heating Degree Days 58    
Moisture  
Dew Point 2 °F    
Average Humidity 84    
Maximum Humidity 93    
Minimum Humidity 78    
Precipitation  
Precipitation 0.00 in - - ()
Sea Level Pressure  
Sea Level Pressure 30.02 in    
Wind  
Wind Speed 3 mph (SW)    
Max Wind Speed 12 mph    
Max Gust Speed -    
Visibility 7 miles    
Events Snow    
Averages and records for this station are not official NWS values.
T = Trace of Precipitation, MM = Missing Value Source: NWS Daily Summary

Daily Weather History Graph

Daily Weather History Graph

Search for Another Location

Airport:

Trip Planner

Search our weather history database for the weather conditions in past years. The results will help you decide how hot, cold, wet, or windy it might be!

Date:

Astronomy

Jan. 18, 2013 Rise Set
Actual Time 8:26 AM EST 5:34 PM EST
Civil Twilight 7:53 AM EST 6:07 PM EST
Nautical Twilight 7:15 AM EST 6:44 PM EST
Astronomical Twilight 6:40 AM EST 7:20 PM EST
Moon 11:35 AM EST (1/18) 12:51 AM EST (1/18)
Length of Visible Light 10h 14m
Length of Day
9h 07m
Waxing Crescent, 47% of the Moon is Illuminated
Jan 18
Waxing Crescent
Jan 18
First Quarter
Jan 26
Full
Feb 3
Last Quarter
Feb 10
New

Hourly Weather History & Observations

Time (EST) Temp. Windchill Dew Point Humidity Pressure Visibility Wind Dir Wind Speed Gust Speed Precip Events Conditions
12:16 AM 1.4 °F -8.3 °F -3.6 °F 79% 30.23 in 10.0 mi West 4.6 mph - N/A   Mostly Cloudy
12:37 AM 1.4 °F -8.3 °F -3.8 °F 79% 30.23 in 10.0 mi West 4.6 mph - N/A   Mostly Cloudy
12:57 AM 1.2 °F -8.5 °F -4.0 °F 79% 30.23 in 10.0 mi West 4.6 mph - N/A   Mostly Cloudy
1:17 AM 0.9 °F -8.9 °F -4.0 °F 80% 30.23 in 10.0 mi West 4.6 mph - N/A   Scattered Clouds
1:37 AM 0.5 °F -9.3 °F -4.2 °F 81% 30.23 in 10.0 mi West 4.6 mph - N/A   Clear
1:57 AM -0.0 °F -7.9 °F -4.7 °F 81% 30.23 in 10.0 mi West 3.5 mph - N/A   Clear
2:17 AM 0.1 °F - -4.5 °F 81% 30.24 in 10.0 mi Calm Calm - N/A   Clear
2:37 AM -0.0 °F - -4.9 °F 80% 30.24 in 10.0 mi Calm Calm - N/A   Clear
2:56 AM -0.0 °F - -4.9 °F 80% 30.24 in 10.0 mi Calm Calm - N/A   Clear
3:17 AM -0.6 °F - -5.3 °F 81% 30.23 in 10.0 mi Calm Calm - N/A   Clear
3:36 AM -0.4 °F - -5.8 °F 78% 30.23 in 10.0 mi Calm Calm - N/A   Clear
3:57 AM -1.8 °F -9.9 °F -6.3 °F 81% 30.23 in 10.0 mi WSW 3.5 mph - N/A   Clear
4:16 AM -1.3 °F - -5.8 °F 81% 30.23 in 10.0 mi Calm Calm - N/A   Clear
4:37 AM -1.8 °F - -6.2 °F 82% 30.22 in 10.0 mi Calm Calm - N/A   Clear
4:57 AM -2.7 °F -16.2 °F -6.9 °F 82% 30.22 in 10.0 mi SSW 6.9 mph - N/A   Clear
5:16 AM -3.1 °F -11.4 °F -7.6 °F 81% 30.22 in 10.0 mi SSW 3.5 mph - N/A   Clear
5:37 AM -2.2 °F -12.5 °F -6.2 °F 83% 30.21 in 10.0 mi South 4.6 mph - N/A   Clear
5:57 AM -1.8 °F - -6.3 °F 81% 30.20 in 10.0 mi Calm Calm - N/A   Mostly Cloudy
6:50 AM -2.2 °F -18.0 °F -5.8 °F 85% 30.18 in 10.0 mi SSW 9.2 mph - N/A   Clear
7:50 AM 1.4 °F - -4.0 °F 78% 30.14 in 10.0 mi Calm Calm - N/A   Overcast
8:50 AM 3.2 °F -13.1 °F -2.2 °F 78% 30.14 in 10.0 mi SSW 11.5 mph - N/A   Overcast
9:50 AM 5.0 °F -9.1 °F -0.4 °F 78% 30.08 in 1.0 mi South 9.2 mph - N/A Snow Light Snow
10:50 AM 6.8 °F -6.9 °F 3.2 °F 85% 30.05 in 0.5 mi South 9.2 mph - N/A Snow Light Snow
11:50 AM 6.8 °F -5.9 °F 3.2 °F 85% 30.01 in 0.8 mi South 8.1 mph - N/A Snow Light Snow
12:50 PM 8.6 °F -2.6 °F 5.0 °F 85% 29.93 in 0.8 mi South 6.9 mph - N/A Snow Light Snow
1:50 PM 10.4 °F - 6.8 °F 85% 29.87 in 0.8 mi Calm Calm - N/A Snow Light Snow
2:50 PM 12.2 °F 4.3 °F 8.6 °F 85% 29.83 in 1.5 mi South 4.6 mph - N/A Snow Light Snow
3:50 PM 14.0 °F 6.5 °F 10.4 °F 86% 29.80 in 3.0 mi SSW 4.6 mph - N/A Snow Light Snow
4:50 PM 14.0 °F - 12.2 °F 93% 29.76 in 4.0 mi Calm Calm - N/A Snow Light Snow
5:55 PM 14.0 °F 8.2 °F 12.2 °F 93% 29.75 in 10.0 mi SSW 3.5 mph - N/A   Overcast
6:55 PM 15.8 °F - 12.2 °F 86% 29.75 in 4.0 mi Calm Calm - N/A Snow Light Snow
7:55 PM 15.8 °F - 12.2 °F 86% 29.74 in 2.5 mi Calm Calm - N/A Snow Light Snow
8:50 PM 15.8 °F - 12.2 °F 86% 29.72 in 2.5 mi Calm Calm - N/A Snow Light Snow
9:50 PM 15.8 °F - 12.2 °F 86% 29.72 in 3.0 mi Calm Calm - N/A Snow Light Snow
10:17 PM 15.6 °F - 12.9 °F 89% 29.71 in 7.0 mi Calm Calm - N/A   Overcast
10:37 PM 15.8 °F - 12.9 °F 88% 29.70 in 10.0 mi Calm Calm - N/A   Overcast
10:57 PM 15.8 °F - 13.1 °F 89% 29.70 in 7.0 mi Calm Calm - N/A   Overcast
11:17 PM 16.0 °F - 13.3 °F 89% 29.70 in 5.0 mi Calm Calm - N/A Snow Light Snow
11:37 PM 16.3 °F - 13.6 °F 89% 29.70 in 10.0 mi Calm Calm - N/A Snow Light Snow
11:57 PM 16.5 °F - 13.8 °F 89% 29.70 in 4.0 mi Calm Calm - N/A Snow Light Snow